Easton, MD

6:42 AM EDT on October 19, 2019 (GMT -0400)
Easton / Newnam

Weather History for KESN - August, 2019

Change the Weather History Date:

Thursday, August 1, 2019

  Actual Average Record
Temperature  
Mean Temperature 81 °F -  
Max Temperature 91 °F 89 °F 97 °F (1954)
Min Temperature 71 °F 67 °F 56 °F (1964)
Cooling Degree Days 16    
Growing Degree Days 31 (Base 50)    
Moisture  
Dew Point 69 °F    
Average Humidity 80    
Maximum Humidity 100    
Minimum Humidity 41    
Precipitation  
Precipitation 0.00 in - - ()
Sea Level Pressure  
Sea Level Pressure 30.10 in    
Wind  
Wind Speed 1 mph (South)    
Max Wind Speed 20 mph    
Max Gust Speed 31 mph    
Visibility 9 miles    
Events      
Averages and records for this station are not official NWS values.
T = Trace of Precipitation, MM = Missing Value Source: NWS Daily Summary

Daily Weather History Graph

Daily Weather History Graph

Search for Another Location

Airport or City:

Astronomy

Aug. 01, 2019 Rise Set
Actual Time 6:05 AM EDT 8:15 PM EDT
Civil Twilight 5:35 AM EDT 8:44 PM EDT
Nautical Twilight 4:59 AM EDT 9:21 PM EDT
Astronomical Twilight 4:19 AM EDT 10:00 PM EDT
Moon 6:27 AM EDT (8/1) 9:01 PM EDT (8/1)
Length of Visible Light 15h 09m
Length of Day
14h 10m
New Moon, 0% of the Moon is Illuminated
Aug 1
New Moon
Aug 7
First Quarter
Aug 15
Full
Aug 23
Last Quarter
Aug 30
New

Hourly Weather History & Observations

Time (EDT) Temp. Heat Index Dew Point Humidity Pressure Visibility Wind Dir Wind Speed Gust Speed Precip Events Conditions
12:18 AM 74.8 °F - 72.9 °F 94% 30.10 in 10.0 mi Calm Calm - N/A   Clear
12:38 AM 74.7 °F - 72.5 °F 93% 30.09 in 10.0 mi SSW 3.5 mph - N/A   Clear
12:58 AM 74.8 °F - 72.5 °F 92% 30.09 in 10.0 mi Calm Calm - N/A   Clear
1:18 AM 75.2 °F - 72.7 °F 92% 30.09 in 10.0 mi Calm Calm - N/A   Clear
1:38 AM 75.2 °F - 72.7 °F 92% 30.08 in 10.0 mi Calm Calm - N/A   Clear
1:58 AM 74.7 °F - 72.1 °F 92% 30.08 in 10.0 mi Calm Calm - N/A   Clear
2:18 AM 73.9 °F - 72.5 °F 95% 30.08 in 7.0 mi SE 3.5 mph - N/A   Clear
2:38 AM 73.6 °F - 72.5 °F 96% 30.08 in 7.0 mi Calm Calm - N/A   Clear
2:57 AM 73.2 °F - 72.0 °F 96% 30.08 in 10.0 mi Calm Calm - N/A   Clear
3:18 AM 72.7 °F - 71.4 °F 96% 30.08 in 7.0 mi Calm Calm - N/A   Clear
3:31 AM 72.7 °F - 71.6 °F 96% 30.08 in 5.0 mi Calm Calm - N/A   Clear
3:58 AM 72.1 °F - 70.9 °F 96% 30.08 in 7.0 mi Calm Calm - N/A   Clear
4:18 AM 72.1 °F - 71.1 °F 96% 30.08 in 7.0 mi Calm Calm - N/A   Clear
4:38 AM 72.9 °F - 71.8 °F 96% 30.08 in 10.0 mi Calm Calm - N/A   Clear
4:58 AM 73.0 °F - 72.0 °F 96% 30.08 in 10.0 mi Calm Calm - N/A   Clear
5:18 AM 72.5 °F - 71.6 °F 97% 30.08 in 4.0 mi Calm Calm - N/A   Clear
5:38 AM 72.5 °F - 71.2 °F 96% 30.08 in 7.0 mi Calm Calm - N/A   Clear
5:41 AM 72.1 °F - 70.9 °F 96% 30.08 in 7.0 mi Calm Calm - N/A   Clear
6:00 AM 73.4 °F - 71.6 °F 94% 30.08 in 10.0 mi Calm Calm - N/A   Partly Cloudy
6:46 AM 71.6 °F - 71.6 °F 100% 30.09 in 7.0 mi Calm Calm - N/A   Partly Cloudy
7:50 AM 75.2 °F - 71.6 °F 89% 30.10 in 10.0 mi Calm Calm - N/A   Clear
8:50 AM 78.8 °F - 69.8 °F 74% 30.12 in 10.0 mi Calm Calm - N/A   Clear
9:50 AM 82.4 °F 86.3 °F 69.8 °F 66% 30.12 in 10.0 mi Calm Calm - N/A   Clear
10:50 AM 84.2 °F 88.4 °F 69.8 °F 62% 30.13 in 10.0 mi Calm Calm - N/A   Clear
11:50 AM 87.8 °F 91.4 °F 68.0 °F 52% 30.13 in 10.0 mi West 6.9 mph - N/A   Clear
12:50 PM 87.8 °F 91.4 °F 68.0 °F 52% 30.13 in 10.0 mi WSW 3.5 mph - N/A   Scattered Clouds
1:48 PM 89.6 °F 93.4 °F 68.0 °F 49% 30.12 in 10.0 mi SSE 3.5 mph - N/A   Scattered Clouds
2:46 PM 91.4 °F 94.0 °F 66.2 °F 43% 30.10 in 10.0 mi SSW 6.9 mph - N/A   Scattered Clouds
3:50 PM 91.4 °F 94.0 °F 66.2 °F 43% 30.09 in 10.0 mi SSW 5.8 mph - N/A   Scattered Clouds
4:50 PM 91.4 °F 93.2 °F 64.4 °F 41% 30.08 in 10.0 mi WSW 4.6 mph - N/A   Scattered Clouds
5:26 PM 86.0 °F 88.2 °F 66.2 °F 51% 30.11 in 10.0 mi NNE 19.6 mph 31.1 mph N/A   Scattered Clouds
5:50 PM 78.8 °F - 68.0 °F 69% 30.11 in 10.0 mi NNE 13.8 mph - N/A   Mostly Cloudy
6:52 PM 78.8 °F - 66.2 °F 65% 30.09 in 10.0 mi East 6.9 mph - N/A   Scattered Clouds
7:50 PM 75.2 °F - 64.4 °F 69% 30.11 in 10.0 mi ESE 4.6 mph - N/A   Scattered Clouds
8:45 PM 75.2 °F - 64.4 °F 69% 30.11 in 10.0 mi Calm Calm - N/A   Scattered Clouds
9:53 PM 73.4 °F - 64.4 °F 73% 30.13 in 10.0 mi Calm Calm - N/A   Clear
10:18 PM 72.9 °F - 65.1 °F 77% 30.13 in 10.0 mi Calm Calm - N/A   Clear
10:38 PM 72.9 °F - 65.3 °F 77% 30.13 in 10.0 mi Calm Calm - N/A   Clear
10:58 PM 72.9 °F - 65.7 °F 78% 30.13 in 10.0 mi Calm Calm - N/A   Clear
11:38 PM 72.1 °F - 66.7 °F 83% 30.13 in 10.0 mi Calm Calm - N/A   Clear
11:58 PM 72.0 °F - 67.1 °F 85% 30.13 in 10.0 mi Calm Calm - N/A   Clear